Radiation Dose at Monitoring Post of Fukushima Daini Nuclear Power Station
Date,Time,MP-1(microSv/h),MP-2(microSv/h),MP-3(microSv/h),MP-4(microSv/h),MP-5(microSv/h),MP-6(microSv/h),MP-7(microSv/h),Wind Direction,Wind Velocity(m/s),Rain
2020/10/07,00:00,0.180,0.162,0.262,0.249,0.247,0.143,0.085,northwest,4.6,No
2020/10/07,00:10,0.180,0.163,0.262,0.247,0.247,0.142,0.085,north-northwest,6.1,No
2020/10/07,00:20,0.180,0.162,0.263,0.248,0.247,0.141,0.085,north-northwest,5.9,No
2020/10/07,00:30,0.179,0.161,0.263,0.249,0.249,0.140,0.085,north-northwest,5.4,No
2020/10/07,00:40,0.180,0.162,0.261,0.248,0.246,0.141,0.086,north-northwest,5.8,No
2020/10/07,00:50,0.179,0.162,0.262,0.249,0.248,0.140,0.084,north-northwest,4.2,No
2020/10/07,01:00,0.179,0.162,0.262,0.248,0.246,0.141,0.085,north-northwest,4.8,No
2020/10/07,01:10,0.180,0.161,0.261,0.247,0.247,0.140,0.085,northwest,2.1,No
2020/10/07,01:20,0.180,0.162,0.263,0.249,0.247,0.141,0.085,north-northwest,2.5,No
2020/10/07,01:30,0.180,0.163,0.261,0.249,0.246,0.141,0.085,north-northwest,3.3,No
2020/10/07,01:40,0.179,0.161,0.262,0.248,0.248,0.141,0.085,northwest,2.1,No
2020/10/07,01:50,0.180,0.163,0.263,0.249,0.248,0.143,0.086,north-northwest,1.8,No
2020/10/07,02:00,0.179,0.162,0.262,0.247,0.248,0.142,0.085,north-northwest,2.7,No
2020/10/07,02:10,0.180,0.163,0.262,0.248,0.246,0.141,0.084,north-northwest,3.3,No
2020/10/07,02:20,0.180,0.163,0.263,0.249,0.246,0.141,0.086,north-northwest,4.0,No
2020/10/07,02:30,0.180,0.162,0.261,0.248,0.249,0.141,0.085,north-northwest,3.2,No
2020/10/07,02:40,0.181,0.162,0.262,0.248,0.246,0.140,0.084,north,3.4,No
2020/10/07,02:50,0.179,0.162,0.262,0.249,0.247,0.140,0.086,north-northwest,2.9,No
2020/10/07,03:00,0.180,0.163,0.262,0.248,0.247,0.140,0.085,northwest,2.7,No
2020/10/07,03:10,0.180,0.161,0.262,0.248,0.247,0.141,0.085,north-northwest,2.4,No
2020/10/07,03:20,0.179,0.161,0.262,0.247,0.247,0.141,0.086,northwest,1.9,No
2020/10/07,03:30,0.179,0.162,0.261,0.248,0.245,0.141,0.085,north-northwest,1.5,No
2020/10/07,03:40,0.178,0.162,0.261,0.249,0.247,0.142,0.085,north-northwest,1.7,No
2020/10/07,03:50,0.181,0.162,0.261,0.247,0.246,0.140,0.085,north-northwest,2.3,No
2020/10/07,04:00,0.179,0.162,0.263,0.248,0.247,0.141,0.085,north-northwest,1.9,No
2020/10/07,04:10,0.180,0.162,0.261,0.247,0.246,0.141,0.084,north,2.0,No
2020/10/07,04:20,0.178,0.162,0.262,0.248,0.248,0.141,0.085,north-northwest,2.2,No
2020/10/07,04:30,0.180,0.163,0.262,0.248,0.245,0.141,0.085,north-northwest,2.3,No
2020/10/07,04:40,0.181,0.162,0.261,0.248,0.249,0.141,0.085,north-northwest,2.7,No
2020/10/07,04:50,0.180,0.162,0.262,0.248,0.245,0.141,0.084,north-northwest,2.9,No
2020/10/07,05:00,0.180,0.161,0.262,0.247,0.248,0.140,0.085,north-northwest,2.9,No
2020/10/07,05:10,0.179,0.161,0.263,0.248,0.245,0.142,0.085,north-northwest,2.9,No
2020/10/07,05:20,0.180,0.162,0.261,0.248,0.248,0.140,0.085,north-northwest,2.9,No
2020/10/07,05:30,0.179,0.162,0.262,0.246,0.248,0.141,0.085,north-northwest,3.4,No
2020/10/07,05:40,0.180,0.162,0.262,0.248,0.246,0.141,0.085,north-northwest,3.4,No
2020/10/07,05:50,0.181,0.162,0.261,0.247,0.247,0.140,0.084,north-northwest,3.7,No
2020/10/07,06:00,0.179,0.162,0.262,0.247,0.247,0.140,0.086,north-northwest,3.5,No
2020/10/07,06:10,0.181,0.162,0.262,0.248,0.248,0.140,0.086,north-northwest,4.6,No
2020/10/07,06:20,0.178,0.162,0.261,0.247,0.246,0.140,0.085,north-northwest,5.1,No
2020/10/07,06:30,0.181,0.162,0.262,0.248,0.247,0.140,0.085,north-northwest,4.7,No
2020/10/07,06:40,0.180,0.163,0.261,0.247,0.246,0.141,0.085,north-northwest,5.2,No
2020/10/07,06:50,0.180,0.161,0.262,0.247,0.247,0.140,0.085,northwest,4.8,No
2020/10/07,07:00,0.181,0.161,0.260,0.249,0.246,0.140,0.085,northwest,4.5,No
2020/10/07,07:10,0.179,0.162,0.261,0.247,0.247,0.141,0.086,north-northwest,5.0,No
2020/10/07,07:20,0.180,0.161,0.261,0.248,0.246,0.141,0.085,north-northwest,4.9,No
2020/10/07,07:30,0.179,0.161,0.261,0.245,0.247,0.141,0.085,northwest,4.1,No
2020/10/07,07:40,0.181,0.161,0.261,0.247,0.245,0.140,0.086,northwest,3.3,No
2020/10/07,07:50,0.179,0.162,0.261,0.246,0.245,0.141,0.085,north-northwest,2.8,No
2020/10/07,08:00,0.181,0.160,0.261,0.248,0.246,0.141,0.085,north-northwest,2.8,No
2020/10/07,08:10,0.179,0.161,0.264,0.246,0.247,0.141,0.085,north,3.9,No
2020/10/07,08:20,0.180,0.161,0.260,0.246,0.244,0.141,0.084,north,4.5,No
2020/10/07,08:30,0.179,0.161,0.263,0.248,0.248,0.141,0.084,north,3.4,No
2020/10/07,08:40,0.179,0.162,0.259,0.246,0.245,0.140,0.086,north,5.1,No
2020/10/07,08:50,0.180,0.160,0.260,0.246,0.245,0.141,0.085,north,3.8,No
2020/10/07,09:00,0.179,0.162,0.261,0.247,0.249,0.141,0.085,north-northeast,3.2,No
2020/10/07,09:10,0.180,0.161,0.260,0.246,0.245,0.140,0.085,north-northeast,4.6,No
2020/10/07,09:20,0.179,0.162,0.263,0.245,0.245,0.141,0.085,north-northeast,4.3,No
2020/10/07,09:30,0.179,0.162,0.261,0.248,0.248,0.141,0.084,northeast,4.6,No
2020/10/07,09:40,0.180,0.161,0.263,0.248,0.247,0.139,0.085,northeast,4.3,No
2020/10/07,09:50,0.180,0.160,0.260,0.246,0.244,0.140,0.084,northeast,4.2,No
2020/10/07,10:00,0.179,0.162,0.261,0.244,0.244,0.141,0.084,northeast,4.7,No
2020/10/07,10:10,0.177,0.161,0.262,0.244,0.246,0.141,0.086,northeast,4.1,No
2020/10/07,10:20,0.178,0.161,0.262,0.248,0.247,0.141,0.084,northeast,4.6,No
2020/10/07,10:30,0.180,0.161,0.259,0.249,0.245,0.141,0.085,northeast,3.7,No
2020/10/07,10:40,0.180,0.162,0.259,0.247,0.245,0.141,0.086,northeast,4.8,No
2020/10/07,10:50,0.178,0.162,0.257,0.244,0.243,0.140,0.085,northeast,4.6,No
2020/10/07,11:00,0.178,0.161,0.261,0.244,0.248,0.141,0.085,east-northeast,4.1,No
2020/10/07,11:10,0.179,0.162,0.261,0.247,0.247,0.142,0.085,east-northeast,4.2,No
2020/10/07,11:20,0.181,0.163,0.260,0.250,0.245,0.142,0.086,northeast,4.0,No
2020/10/07,11:30,0.180,0.162,0.258,0.248,0.245,0.141,0.085,northeast,3.5,No
2020/10/07,11:40,0.178,0.160,0.260,0.248,0.245,0.141,0.085,east-northeast,2.8,No
2020/10/07,11:50,0.177,0.160,0.263,0.246,0.245,0.141,0.084,northeast,2.6,No
2020/10/07,12:00,0.177,0.161,0.260,0.245,0.249,0.141,0.085,east-northeast,2.9,No
2020/10/07,12:10,0.180,0.163,0.259,0.249,0.249,0.142,0.085,northeast,2.7,No
2020/10/07,12:20,0.180,0.163,0.260,0.250,0.245,0.142,0.085,east-northeast,3.1,No
2020/10/07,12:30,0.180,0.161,0.263,0.249,0.245,0.141,0.084,east-southeast,1.8,No
2020/10/07,12:40,0.178,0.163,0.261,0.246,0.245,0.141,0.084,east,1.7,No
2020/10/07,12:50,0.181,0.162,0.260,0.248,0.248,0.142,0.085,east,2.6,No
2020/10/07,13:00,0.180,0.161,0.263,0.250,0.247,0.141,0.084,east,1.8,No
2020/10/07,13:10,0.179,0.163,0.262,0.249,0.245,0.140,0.085,east,1.2,No
2020/10/07,13:20,0.180,0.162,0.260,0.246,0.247,0.141,0.085,east-northeast,1.0,No
2020/10/07,13:30,0.180,0.162,0.264,0.250,0.249,0.142,0.084,east,0.8,No
2020/10/07,13:40,0.178,0.163,0.261,0.249,0.246,0.141,0.085,east-southeast,1.3,No
2020/10/07,13:50,0.180,0.163,0.260,0.247,0.246,0.140,0.085,east-southeast,1.6,No
2020/10/07,14:00,0.181,0.162,0.263,0.251,0.248,0.140,0.085,east-southeast,1.0,No
2020/10/07,14:10,0.178,0.163,0.262,0.250,0.247,0.140,0.085,east-southeast,1.4,No
2020/10/07,14:20,0.178,0.161,0.261,0.246,0.244,0.141,0.085,east,1.6,No
2020/10/07,14:30,0.181,0.162,0.265,0.249,0.248,0.141,0.084,east-southeast,2.7,No
2020/10/07,14:40,0.179,0.162,0.261,0.249,0.248,0.140,0.085,east-southeast,2.7,No
2020/10/07,14:50,0.179,0.162,0.263,0.248,0.245,0.141,0.085,east-southeast,1.3,No
2020/10/07,15:00,0.179,0.163,0.264,0.250,0.248,0.141,0.085,southeast,2.1,No
2020/10/07,15:10,0.180,0.162,0.261,0.247,0.247,0.141,0.085,east-southeast,2.3,No
2020/10/07,15:20,0.179,0.161,0.262,0.250,0.247,0.141,0.086,east-southeast,1.5,No
2020/10/07,15:30,0.181,0.163,0.260,0.251,0.249,0.142,0.085,east-southeast,1.7,No
2020/10/07,15:40,0.179,0.162,0.264,0.249,0.246,0.141,0.086,east-southeast,2.1,No
2020/10/07,15:50,0.180,0.162,0.263,0.250,0.248,0.141,0.084,east-southeast,1.5,No
2020/10/07,16:00,0.180,0.163,0.262,0.248,0.248,0.142,0.085,east-southeast,1.2,No
2020/10/07,16:10,0.180,0.162,0.263,0.250,0.246,0.141,0.085,east-southeast,0.9,No
2020/10/07,16:20,0.180,0.163,0.262,0.248,0.249,0.141,0.084,east,1.7,No
2020/10/07,16:30,0.179,0.162,0.265,0.249,0.245,0.140,0.085,southeast,1.3,No
2020/10/07,16:40,0.181,0.162,0.261,0.249,0.247,0.141,0.085,south-southeast,1.0,No
2020/10/07,16:50,0.180,0.162,0.264,0.248,0.248,0.141,0.086,east-southeast,0.8,No
2020/10/07,17:00,0.179,0.163,0.261,0.250,0.246,0.141,0.085,southeast,1.5,No
2020/10/07,17:10,0.180,0.162,0.263,0.248,0.248,0.141,0.085,southeast,2.4,Yes
2020/10/07,17:20,0.179,0.162,0.262,0.250,0.247,0.141,0.084,southeast,2.4,Yes
2020/10/07,17:30,0.180,0.162,0.263,0.248,0.247,0.141,0.085,south,1.0,Yes
2020/10/07,17:40,0.180,0.162,0.262,0.248,0.247,0.142,0.086,south,1.6,Yes
2020/10/07,17:50,0.181,0.163,0.262,0.248,0.248,0.142,0.085,southeast,1.9,Yes
2020/10/07,18:00,0.180,0.163,0.261,0.248,0.246,0.142,0.086,south-southeast,0.6,Yes
2020/10/07,18:10,0.181,0.163,0.263,0.248,0.249,0.142,0.086,southeast,0.6,Yes
2020/10/07,18:20,0.181,0.163,0.263,0.249,0.246,0.142,0.086,south-southeast,1.6,Yes
2020/10/07,18:30,0.180,0.161,0.261,0.249,0.247,0.142,0.086,south-southeast,2.4,Yes
2020/10/07,18:40,0.180,0.163,0.262,0.248,0.246,0.142,0.086,south,1.7,Yes
2020/10/07,18:50,0.179,0.163,0.260,0.247,0.248,0.142,0.086,south-southwest,1.7,Yes
2020/10/07,19:00,0.180,0.164,0.260,0.245,0.244,0.142,0.086,southwest,1.8,Yes
2020/10/07,19:10,0.179,0.162,0.260,0.248,0.246,0.141,0.085,west-southwest,2.0,Yes
2020/10/07,19:20,0.180,0.161,0.261,0.246,0.246,0.142,0.086,south-southwest,0.9,Yes
2020/10/07,19:30,0.178,0.161,0.259,0.247,0.245,0.141,0.086,south-southeast,1.8,Yes
2020/10/07,19:40,0.180,0.162,0.261,0.245,0.245,0.142,0.086,southeast,1.5,Yes
2020/10/07,19:50,0.178,0.161,0.259,0.246,0.245,0.140,0.086,southwest,2.0,Yes
2020/10/07,20:00,0.180,0.162,0.260,0.245,0.245,0.141,0.085,south-southwest,1.6,Yes
2020/10/07,20:10,0.179,0.162,0.259,0.245,0.244,0.140,0.085,south-southwest,1.2,Yes
2020/10/07,20:20,0.179,0.161,0.258,0.247,0.246,0.141,0.085,south-southeast,1.2,Yes
2020/10/07,20:30,0.178,0.160,0.259,0.244,0.244,0.141,0.085,south-southeast,1.3,Yes
2020/10/07,20:40,0.179,0.161,0.258,0.247,0.246,0.141,0.085,west-southwest,0.8,Yes
2020/10/07,20:50,0.180,0.161,0.258,0.243,0.243,0.141,0.086,west-southwest,1.7,Yes
2020/10/07,21:00,0.177,0.161,0.257,0.245,0.247,0.140,0.085,south-southwest,1.2,Yes
2020/10/07,21:10,0.180,0.160,0.258,0.245,0.243,0.140,0.085,south,1.3,Yes
2020/10/07,21:20,0.178,0.160,0.259,0.245,0.245,0.140,0.085,west-southwest,1.2,Yes
2020/10/07,21:30,0.178,0.160,0.257,0.243,0.244,0.139,0.085,south,0.6,Yes
2020/10/07,21:40,0.178,0.161,0.257,0.243,0.246,0.140,0.085,south,1.0,Yes
2020/10/07,21:50,0.178,0.159,0.257,0.244,0.244,0.141,0.085,southwest,1.5,Yes
2020/10/07,22:00,0.177,0.160,0.256,0.242,0.244,0.140,0.085,west-southwest,2.3,Yes
2020/10/07,22:10,0.178,0.161,0.256,0.244,0.243,0.140,0.085,south-southwest,1.4,Yes
2020/10/07,22:20,0.177,0.160,0.257,0.243,0.244,0.139,0.085,south,2.0,Yes
2020/10/07,22:30,0.177,0.160,0.257,0.243,0.244,0.139,0.085,south-southwest,1.8,Yes
2020/10/07,22:40,0.178,0.160,0.257,0.243,0.244,0.139,0.085,southwest,1.7,Yes
2020/10/07,22:50,0.178,0.161,0.257,0.243,0.244,0.140,0.085,west-southwest,2.0,Yes
2020/10/07,23:00,0.178,0.161,0.256,0.244,0.243,0.139,0.084,west-southwest,1.6,Yes
2020/10/07,23:10,0.177,0.160,0.257,0.242,0.244,0.140,0.084,southwest,1.5,Yes
2020/10/07,23:20,0.179,0.160,0.256,0.243,0.243,0.139,0.084,southwest,1.5,Yes
2020/10/07,23:30,0.177,0.160,0.257,0.242,0.245,0.140,0.086,south,1.6,Yes
2020/10/07,23:40,0.179,0.160,0.254,0.243,0.244,0.139,0.085,south,1.4,Yes
2020/10/07,23:50,0.176,0.160,0.256,0.242,0.243,0.139,0.085,south-southwest,1.5,Yes
